Regional Weather Roundup
Issued by NWS

Home | Current Version | Previous Version | Text Only | Print | Product List | Glossary Off
Versions: 1 2 3 4 5 6 7 8 9 10 11 12 13 14 15 16 17 18 19 20 21 22 23 24 25 26 27 28 29 30 31 32 33 34 35 36 37 38 39 40 41 42 43 44 45 46 47 48 49 50

312
ASUS44 KJAN 152003
RWRMS

MISSISSIPPI HOURLY WEATHER ROUNDUP
NATIONAL WEATHER SERVICE JACKSON MS
300 PM CDT TUE APR 15 2014

NOTE: "FAIR: INDICATES FEW OR NO CLOUDS BELOW 12,000 FEET WITH NO
SIGNIFICANT WEATHER AND/OR OBSTRUCTIONS TO VISIBILITY.

MSZ001>002-007>008-010>013-018>021-025>028-034>036-152100-
NORTHWEST MISSISSIPPI

CITY           SKY/WX    TMP DP  RH WIND       PRES   REMARKS
CLARKSDALE       N/A     48  32  53 N10G21    30.24F
CLEVELAND      FAIR      50  31  48 N24G30    30.22F
GREENWOOD      SUNNY     52  28  39 N15G24    30.21S
GREENVILLE     SUNNY     52  33  48 N16       30.22F
GRENADA        FAIR      52  27  37 NW12G20   30.19F
OLIVE BRANCH   MOSUNNY   46  27  46 N10G25    30.22F
OXFORD         FAIR      48  18  29 N12G22    30.21S
TUNICA         CLEAR     48  30  49 N13       30.25S
$$

MSZ003>006-009-014>017-022>024-029>033-037>039-152100-
NORTHEAST MISSISSIPPI

CITY           SKY/WX    TMP DP  RH WIND       PRES   REMARKS
BELMONT        FAIR      50  24  36 NW9G18    30.14S
COLUMBUS AFB   SUNNY     53  24  32 N17G29    30.14F
CORINTH        FAIR      50  23  34 N8G21     30.17S
GOLDN TRIANGLE SUNNY     54  30  40 N14G25    30.17F
STARKVILLE     FAIR      52  27  37 NW8G17    30.15F
TUPELO         SUNNY     52  25  35 NE20G26   30.16F
$$

MSZ040-058-152100-
CENTRAL MISSISSIPPI

CITY           SKY/WX    TMP DP  RH WIND       PRES   REMARKS
JACKSON INTL   SUNNY     54  30  40 NW15G28   30.15F
JACKSON HAWKNS SUNNY     53  27  36 N12G23    30.15F
MERIDIAN KEY   SUNNY     54  28  36 N23G29    30.10F
MERIDIAN NAS   SUNNY     54  25  32 N18G29    30.12F
RAYMOND        FAIR      52  46  82 N13G23    30.17F
VICKSBURG      SUNNY     52  31  44 N21G29    30.20F
$$

MSZ059>079-152100-
SOUTH MISSISSIPPI

CITY           SKY/WX    TMP DP  RH WIND       PRES   REMARKS
BROOKHAVEN     FAIR      54  32  43 N16       30.14F
COLUMBIA       FAIR      57  28  33 MISG      30.09F
HATTIESBURG    SUNNY     58  28  32 N9G24     30.09F
MCCOMB         SUNNY     56  25  30 N18G28    30.11F
NATCHEZ          N/A     54  30  40 N23G29    30.16F
PINE BELT      SUNNY     57  28  33 NW13G30   30.09F
$$

MSZ080>082-152100-
COASTAL MISSISSIPPI

CITY           SKY/WX    TMP DP  RH WIND       PRES   REMARKS
BAY ST LOUIS   SUNNY     61  32  33 NE14G24   30.06F
BILOXI         SUNNY     59  35  41 N17G26    30.04F
PASCAGOULA     SUNNY     58  38  47 N18G25    30.03F
GULFPORT       SUNNY     62  33  33 N17G26    30.04F
$$



USA.gov is the U.S. government's official web portal to all federal, state and local government web resources and services.